WAT461 KDFW-MMOX

Flight info

Callsign WAT461
Flight time N/A
Altitude 33000
Route NELYN6 HOARY/N0477F350 DCT LOCOE DCT BRO DCT IPRUL UT151 VER/N0474F360 UT151 LEXUR DCT OAX
Aircraft CRJX/M-SDFGIRWY/S

Departure

Time 2026-05-06 20:44
Airport Dallas Fort Worth International Airport (KDFW)

Arrival

Time N/A
Airport Xoxocotlán International Airport (MMOX)
Time Latitude Longitude Altitude Speed Heading
2026-05-06 19:58 32.88778 -97.03522 596 ft 0 kts 114°
2026-05-06 20:37 32.88781 -97.03530 596 ft 4 kts 109°
2026-05-06 20:37 32.88781 -97.03558 596 ft 4 kts 70°
2026-05-06 20:38 32.88768 -97.03583 596 ft 4 kts 43°
2026-05-06 20:38 32.88763 -97.03589 596 ft 1 kts 40°
2026-05-06 20:39 32.88763 -97.03588 596 ft 0 kts 40°
2026-05-06 20:40 32.88770 -97.03581 596 ft 3 kts 40°
2026-05-06 20:40 32.88791 -97.03560 596 ft 5 kts 39°
2026-05-06 20:40 32.88825 -97.03528 596 ft 7 kts 36°
2026-05-06 20:40 32.88878 -97.03496 596 ft 10 kts 20°
2026-05-06 20:41 32.88933 -97.03456 596 ft 7 kts 69°
2026-05-06 20:41 32.88933 -97.03387 596 ft 11 kts 92°
2026-05-06 20:41 32.88889 -97.03327 596 ft 10 kts 161°
2026-05-06 20:41 32.88805 -97.03321 596 ft 14 kts 181°
2026-05-06 20:42 32.88691 -97.03322 596 ft 20 kts 180°
2026-05-06 20:42 32.88540 -97.03321 596 ft 21 kts 168°
2026-05-06 20:42 32.88500 -97.03184 596 ft 19 kts 90°
2026-05-06 20:42 32.88500 -97.03036 596 ft 17 kts 78°
2026-05-06 20:43 32.88561 -97.02988 596 ft 8 kts 351°
2026-05-06 20:43 32.88708 -97.02998 596 ft 46 kts 359°
2026-05-06 20:43 32.89261 -97.02996 596 ft 111 kts
2026-05-06 20:43 32.90216 -97.02990 616 ft 160 kts
2026-05-06 20:44 32.91334 -97.02971 1275 ft 157 kts 360°
2026-05-06 20:44 32.92421 -97.02946 2011 ft 156 kts 360°
2026-05-06 20:44 32.93482 -97.02773 2703 ft 153 kts 14°
2026-05-06 20:44 32.94521 -97.02337 3213 ft 163 kts 20°
2026-05-06 20:45 32.95614 -97.01772 3592 ft 184 kts 21°
2026-05-06 20:45 32.96860 -97.01185 4065 ft 200 kts 16°
2026-05-06 20:45 32.98231 -97.00676 4651 ft 212 kts 13°
2026-05-06 20:45 32.99694 -97.00195 5271 ft 223 kts 11°
2026-05-06 20:46 33.01128 -96.99369 5829 ft 242 kts 43°
2026-05-06 20:46 33.01965 -96.97551 6327 ft 265 kts 81°
2026-05-06 20:46 33.01924 -96.95310 6884 ft 278 kts 101°
2026-05-06 20:46 33.01588 -96.92997 7541 ft 289 kts 102°
2026-05-06 20:47 33.01281 -96.90637 8365 ft 295 kts 101°
2026-05-06 20:47 33.01022 -96.88196 9215 ft 298 kts 99°
2026-05-06 20:47 33.00632 -96.85782 10001 ft 296 kts 119°
2026-05-06 20:47 32.99515 -96.83768 10697 ft 292 kts 136°
2026-05-06 20:48 32.98158 -96.81938 11376 ft 296 kts 139°
2026-05-06 20:48 32.96760 -96.80128 12038 ft 298 kts 146°
2026-05-06 20:48 32.95004 -96.79014 12710 ft 279 kts 176°
2026-05-06 20:48 32.93107 -96.78744 13505 ft 272 kts 187°
2026-05-06 20:49 32.91220 -96.78746 14217 ft 271 kts 191°
2026-05-06 20:49 32.89330 -96.78828 14788 ft 276 kts 192°
2026-05-06 20:49 32.87332 -96.78944 14861 ft 298 kts 192°
2026-05-06 20:49 32.85193 -96.79074 15019 ft 317 kts 190°
2026-05-06 20:50 32.82929 -96.79154 15243 ft 333 kts 189°
2026-05-06 20:50 32.80615 -96.79185 15730 ft 338 kts 189°
2026-05-06 20:50 32.78271 -96.79215 16387 ft 338 kts 189°
2026-05-06 20:50 32.75993 -96.79593 16933 ft 324 kts 208°
2026-05-06 20:51 32.73963 -96.80711 17539 ft 320 kts 213°
2026-05-06 20:51 32.72044 -96.82043 18135 ft 318 kts 219°
2026-05-06 20:51 32.70234 -96.83549 18620 ft 318 kts 221°
2026-05-06 20:51 32.68430 -96.85130 18939 ft 324 kts 221°
2026-05-06 20:52 32.66626 -96.86729 19478 ft 324 kts 222°
2026-05-06 20:52 32.64799 -96.88320 19894 ft 327 kts 221°
2026-05-06 20:52 32.62937 -96.89885 20308 ft 329 kts 220°
2026-05-06 20:52 32.61057 -96.91460 20711 ft 331 kts 220°
2026-05-06 20:53 32.59170 -96.93039 21093 ft 333 kts 220°
2026-05-06 20:53 32.57267 -96.94632 21460 ft 336 kts 221°
2026-05-06 20:53 32.55352 -96.96229 21830 ft 338 kts 221°
2026-05-06 20:53 32.53452 -96.97817 22198 ft 340 kts 221°
2026-05-06 20:54 32.51515 -96.99436 22569 ft 342 kts 221°
2026-05-06 20:54 32.49565 -97.01064 22937 ft 344 kts 221°
2026-05-06 20:54 32.47603 -97.02701 23287 ft 346 kts 221°
2026-05-06 20:54 32.45628 -97.04346 23614 ft 348 kts 221°
2026-05-06 20:55 32.43646 -97.05998 23907 ft 349 kts 221°
2026-05-06 20:55 32.41653 -97.07658 24165 ft 351 kts 221°
2026-05-06 20:55 32.39654 -97.09325 24413 ft 352 kts 221°
2026-05-06 20:55 32.37649 -97.10995 24687 ft 353 kts 221°
2026-05-06 20:56 32.35628 -97.12674 24945 ft 355 kts 221°
2026-05-06 20:56 32.33606 -97.14354 25204 ft 356 kts 220°
2026-05-06 20:56 32.31580 -97.16037 25455 ft 357 kts 220°
2026-05-06 20:56 32.29326 -97.17362 25676 ft 371 kts 206°
2026-05-06 20:57 32.26831 -97.18214 25923 ft 374 kts 204°
2026-05-06 20:57 32.24326 -97.19047 26163 ft 377 kts 202°
2026-05-06 20:57 32.21711 -97.19625 26397 ft 385 kts 197°
2026-05-06 20:57 32.19030 -97.19944 26622 ft 389 kts 194°
2026-05-06 20:58 32.16324 -97.20210 26849 ft 390 kts 194°
2026-05-06 20:58 32.13619 -97.20504 27013 ft 390 kts 195°
2026-05-06 20:58 32.10911 -97.20866 27159 ft 393 kts 195°
2026-05-06 20:58 32.08195 -97.21229 27370 ft 394 kts 195°
2026-05-06 20:59 32.05468 -97.21594 27578 ft 395 kts 195°
2026-05-06 20:59 32.02767 -97.21955 27778 ft 396 kts 195°
2026-05-06 20:59 32.00024 -97.22321 27975 ft 397 kts 195°
2026-05-06 20:59 31.97279 -97.22689 28168 ft 398 kts 195°
2026-05-06 21:00 31.94524 -97.23055 28363 ft 398 kts 195°
2026-05-06 21:00 31.91764 -97.23424 28535 ft 400 kts 195°
2026-05-06 21:00 31.89000 -97.23792 28710 ft 400 kts 195°
2026-05-06 21:00 31.86228 -97.24159 28840 ft 401 kts 196°
2026-05-06 21:01 31.83444 -97.24528 29070 ft 400 kts 196°
2026-05-06 21:01 31.80704 -97.24890 29514 ft 395 kts 196°
2026-05-06 21:01 31.77973 -97.25251 29746 ft 394 kts 196°
2026-05-06 21:01 31.75244 -97.25603 29982 ft 393 kts 196°
2026-05-06 21:02 31.72526 -97.25960 30178 ft 393 kts 196°
2026-05-06 21:02 31.69816 -97.26317 30368 ft 392 kts 196°
2026-05-06 21:02 31.67131 -97.26751 30539 ft 384 kts 202°
2026-05-06 21:02 31.64583 -97.27577 30726 ft 377 kts 207°
2026-05-06 21:03 31.62124 -97.28608 30926 ft 373 kts 210°
2026-05-06 21:03 31.59731 -97.29770 31119 ft 370 kts 211°
2026-05-06 21:03 31.57360 -97.30961 31169 ft 372 kts 211°
2026-05-06 21:03 31.55010 -97.32138 31387 ft 372 kts 211°
2026-05-06 21:04 31.52621 -97.33301 31611 ft 371 kts 210°
2026-05-06 21:04 31.50230 -97.34432 31828 ft 371 kts 210°
2026-05-06 21:04 31.47843 -97.35557 32028 ft 370 kts 210°
2026-05-06 21:04 31.45458 -97.36679 32228 ft 369 kts 210°
2026-05-06 21:05 31.43076 -97.37795 32430 ft 368 kts 210°
2026-05-06 21:05 31.40701 -97.38910 32624 ft 367 kts 210°
2026-05-06 21:05 31.38329 -97.40024 32805 ft 367 kts 210°
2026-05-06 21:05 31.35958 -97.41136 32920 ft 368 kts 210°
2026-05-06 21:06 31.33573 -97.42254 32967 ft 371 kts 210°
2026-05-06 21:06 31.28743 -97.44523 32969 ft 377 kts 210°
2026-05-06 21:07 31.23829 -97.46826 33001 ft 384 kts 210°
2026-05-06 21:07 31.18820 -97.49170 33010 ft 391 kts 210°